Location: Burgwalden
(48.2830°N, 10.7576°E)
Time: 21:29:13
(UTC+00:00)

FENGYUN 3A - Pass Details

Date: 26 September 2023
Orbit: 823 x 834 km, 98.6° (Epoch: 09 December)

Event Time Altitude Azimuth Distance (km) Brightness Sun altitude
Rises 01:43:41 0° 17° (NNE) 3,372 7.6 -32.2°
Reaches altitude 10° 01:46:05 10° 21° (NNE) 2,434 6.8 -31.9°
Enters shadow 01:50:55 57° 76° (ENE) 970 4.1 -31.3°
